Weather in Pesaro

Italy     43°54′45″N   12°54′19″E
temp.,
°C
wind,
m/s
gust,
m/s
humid.,
%
clouds,
%
prec.,
mm/h
press.,
hPa
HPBL,
m
26 september, sun
sun2623:00+22se4577100 0.0 1020270
02:00+22se44774 0.0 1020253
05:00+22sse22725 0.0 1020148
08:00+21ssw21650 0.0 1020108
11:00+22e21675 0.1 1020120
14:00+22ese567587 0.3 1019198
17:00+22ese8108543 1.5 1017257
20:00+22se5783100 6.3 1017284
27 september, mon
mon2723:00+22ese33790 0.3 101695
02:00+22nw228113 0.3 101688
05:00+21nw788952 0.8 1016405
08:00+21wnw559098 1.4 1017360
11:00+21nw33897 0.8 1017217
14:00+21n33856 1.0 1017260
17:00+22ene2281100 0.0 1016300
20:00+22e1181100 0.0 1016152
28 september, tue
tue2823:00+22nnw1282100 0.0 1017173
02:00+22nw3382100 0.0 1018338
05:00+21nw5583100 0.1 1017473
08:00+21nw66835 0.1 1018595
11:00+21nw55835 0.0 1019513
14:00+21nnw54835 0.0 1018374
17:00+22nnw3378100 0.0 1017208
20:00+22wnw2275100 0.0 101769
29 september, wed
wed2923:00+22nw1173100 0.0 101746
02:00+22wsw3373100 0.0 1016103
05:00+21sw2269100 0.0 101575
08:00+22wnw1168100 0.0 101678
11:00+21wnw66765 0.1 1017353
14:00+21nnw45773 0.1 1016295
17:00+22n33770 0.2 1016198
20:00+22nnw4477100 1.0 1018339
30 september, thu
thu3023:00+22nw447498 0.6 1019279
02:00+21wnw777699 2.2 1019363
05:00+20ne10107485 2.6 1020816
08:00+20ne987495 2.9 1021916
11:00+19nne11117161 0.0 10221059
14:00+19nne14147233 0.0 10221067
17:00+19ne10116912 0.0 10221084
20:00+19ne9107066 0.0 10221138